Ashland, VA

7:18 PM EST on December 03, 2016 (GMT -0500)
Hanover County Municipal

Weather History for KOFP - June, 2013

Change the Weather History Date:

Monday, June 3, 2013

  Actual Average Record
Temperature  
Mean Temperature 75 °F -  
Max Temperature 84 °F 80 °F 90 °F (1961)
Min Temperature 68 °F 58 °F 42 °F (1966)
Cooling Degree Days 10    
Growing Degree Days 25 (Base 50)    
Moisture  
Dew Point 69 °F    
Average Humidity 85    
Maximum Humidity 100    
Minimum Humidity 54    
Precipitation  
Precipitation 0.08 in - - ()
Sea Level Pressure  
Sea Level Pressure 29.89 in    
Wind  
Wind Speed 3 mph (SSW)    
Max Wind Speed 9 mph    
Max Gust Speed -    
Visibility 9 miles    
Events Rain    
Averages and records for this station are not official NWS values.
T = Trace of Precipitation, MM = Missing Value Source: NWS Daily Summary

Daily Weather History Graph

Daily Weather History Graph

Search for Another Location

Airport or City:

Trip Planner

Search our weather history database for the weather conditions in past years. The results will help you decide how hot, cold, wet, or windy it might be!

Date:

Astronomy

Jun. 03, 2013 Rise Set
Actual Time 5:48 AM EDT 8:27 PM EDT
Civil Twilight 5:18 AM EDT 8:58 PM EDT
Nautical Twilight 4:39 AM EDT 9:36 PM EDT
Astronomical Twilight 3:56 AM EDT 10:19 PM EDT
Moon 2:40 AM EDT (6/3) 3:59 PM EDT (6/3)
Length of Visible Light 15h 39m
Length of Day
14h 38m
Waning Crescent, 22% of the Moon is Illuminated
Jun 3
Waning Crescent
Jun 8
New
Jun 16
First Quarter
Jun 23
Full
Jun 30
Last Quarter

Hourly Weather History & Observations

Time (EDT) Temp. Heat Index Dew Point Humidity Pressure Visibility Wind Dir Wind Speed Gust Speed Precip Events Conditions
12:54 AM 69.1 °F - 68.0 °F 96% 29.93 in 9.0 mi South 4.6 mph - 0.00 in   Mostly Cloudy
1:51 AM 69.8 °F - 68.0 °F 94% 29.93 in 9.0 mi South 4.6 mph - 0.01 in   Overcast
1:54 AM 69.1 °F - 68.0 °F 96% 29.92 in 9.0 mi South 4.6 mph - 0.01 in   Overcast
2:54 AM 69.1 °F - 68.0 °F 96% 29.90 in 7.0 mi Calm Calm - 0.01 in Rain Light Rain
3:54 AM 69.1 °F - 68.0 °F 96% 29.89 in 10.0 mi Calm Calm - 0.01 in   Mostly Cloudy
4:54 AM 69.1 °F - 68.0 °F 96% 29.89 in 10.0 mi Calm Calm - N/A   Overcast
5:04 AM 69.8 °F - 68.0 °F 94% 29.89 in 9.0 mi Calm Calm - N/A   Overcast
5:41 AM 69.8 °F - 68.0 °F 94% 29.89 in 9.0 mi Calm Calm - N/A   Overcast
5:54 AM 69.1 °F - 68.0 °F 96% 29.89 in 9.0 mi Calm Calm - N/A   Overcast
6:02 AM 69.8 °F - 68.0 °F 94% 29.90 in 9.0 mi Calm Calm - N/A   Overcast
6:47 AM 69.8 °F - 69.8 °F 100% 29.90 in 7.0 mi South 4.6 mph - N/A   Overcast
6:54 AM 70.0 °F - 69.1 °F 97% 29.90 in 7.0 mi South 3.5 mph - N/A   Overcast
7:54 AM 71.1 °F - 70.0 °F 96% 29.90 in 9.0 mi South 6.9 mph - N/A   Overcast
8:54 AM 73.0 °F - 70.0 °F 90% 29.90 in 10.0 mi SW 6.9 mph - N/A   Overcast
9:36 AM 73.4 °F - 69.8 °F 88% 29.89 in 10.0 mi SW 5.8 mph - N/A   Overcast
9:43 AM 73.4 °F - 69.8 °F 88% 29.89 in 10.0 mi SW 9.2 mph - N/A   Overcast
9:54 AM 73.9 °F - 70.0 °F 87% 29.88 in 10.0 mi SW 4.6 mph - N/A   Overcast
10:42 AM 75.2 °F - 69.8 °F 83% 29.88 in 10.0 mi SW 5.8 mph - N/A   Mostly Cloudy
10:51 AM 73.4 °F - 69.8 °F 88% 29.88 in 10.0 mi WSW 5.8 mph - N/A   Mostly Cloudy
10:54 AM 73.9 °F - 70.0 °F 87% 29.88 in 10.0 mi SW 5.8 mph - N/A   Mostly Cloudy
11:54 AM 73.9 °F - 69.1 °F 85% 29.89 in 10.0 mi Variable 5.8 mph - N/A   Overcast
12:49 PM 75.2 °F - 69.8 °F 83% 29.88 in 10.0 mi Variable 3.5 mph - 0.01 in   Mostly Cloudy
12:54 PM 77.0 °F - 71.1 °F 82% 29.88 in 10.0 mi Variable 5.8 mph - 0.01 in   Scattered Clouds
1:16 PM 75.2 °F - 69.8 °F 83% 29.87 in 10.0 mi WSW 4.6 mph - N/A   Mostly Cloudy
1:36 PM 78.8 °F - 71.6 °F 78% 29.87 in 10.0 mi South 4.6 mph - N/A   Mostly Cloudy
1:54 PM 78.1 °F - 70.0 °F 76% 29.86 in 10.0 mi Calm Calm - N/A   Mostly Cloudy
2:40 PM 80.6 °F 83.2 °F 68.0 °F 65% 29.86 in 10.0 mi SW 3.5 mph - N/A   Scattered Clouds
2:54 PM 81.0 °F 83.3 °F 66.9 °F 62% 29.86 in 10.0 mi Variable 5.8 mph - N/A   Scattered Clouds
3:54 PM 82.0 °F 84.5 °F 66.9 °F 60% 29.86 in 10.0 mi Calm Calm - N/A   Partly Cloudy
4:54 PM 82.9 °F 84.6 °F 64.9 °F 54% 29.83 in 10.0 mi Calm Calm - N/A   Scattered Clouds
5:54 PM 82.0 °F 84.9 °F 68.0 °F 62% 29.83 in 10.0 mi Calm Calm - N/A   Clear
6:54 PM 78.1 °F - 70.0 °F 76% 29.85 in 10.0 mi Calm Calm - N/A   Clear
7:54 PM 75.0 °F - 66.0 °F 73% 29.87 in 10.0 mi Variable 3.5 mph - N/A   Overcast
8:54 PM 73.0 °F - 63.0 °F 71% 29.89 in 10.0 mi Calm Calm - N/A   Overcast
9:54 PM 69.1 °F - 68.0 °F 96% 29.91 in 4.0 mi Calm Calm - 0.04 in   Overcast
10:54 PM 68.0 °F - 66.9 °F 96% 29.95 in 6.0 mi SSW 3.5 mph - N/A   Overcast
11:54 PM 69.1 °F - 68.0 °F 96% 29.97 in 4.0 mi Calm Calm - 0.00 in   Overcast